| time (UTC) | temp C | wind direction | speed KPH | gust KPH | rain 1hr cm | rain 24hr cm | rain mn cm | humidity % | barometer mb |
| 20260509000520 | 18 | 212 | 1.6 | 3.2 | 0.00 | 0.00 | 0.00 | 44 | 1046.3 |
| 20260509000015 | 18 | 213 | 1.6 | 1.6 | 0.00 | 0.00 | 0.00 | 42 | 1046.2 |
| 20260508235513 | 18 | 211 | 1.6 | 1.6 | 0.00 | 0.00 | 0.00 | 42 | 1046.6 |
| 20260508235009 | 18 | 214 | 0.0 | 1.6 | 0.00 | 0.00 | 0.00 | 45 | 1046.6 |
| 20260508234507 | 18 | 208 | 1.6 | 1.6 | 0.00 | 0.00 | 0.00 | 40 | 1046.3 |
| 20260508234004 | 19 | 210 | 3.2 | 3.2 | 0.00 | 0.00 | 0.00 | 40 | 1046.4 |
| 20260508233503 | 19 | 213 | 1.6 | 1.6 | 0.00 | 0.00 | 0.00 | 40 | 1046.3 |
| 20260508232959 | 19 | 215 | 1.6 | 3.2 | 0.00 | 0.00 | 0.00 | 40 | 1046.2 |
| 20260508232456 | 19 | 223 | 1.6 | 3.2 | 0.00 | 0.00 | 0.00 | 40 | 1046.7 |
| 20260508231953 | 20 | 211 | 1.6 | 1.6 | 0.00 | 0.00 | 0.00 | 41 | 1046.6 |
| 20260508231451 | 20 | 204 | 3.2 | 3.2 | 0.00 | 0.00 | 0.00 | 39 | 1046.4 |
| 20260508230948 | 20 | 199 | 4.8 | 4.8 | 0.00 | 0.00 | 0.00 | 36 | 1046.6 |
| 20260508230444 | 20 | 204 | 3.2 | 3.2 | 0.00 | 0.00 | 0.00 | 36 | 1046.4 |
| 20260508225941 | 21 | 219 | 3.2 | 4.8 | 0.00 | 0.00 | 0.00 | 36 | 1046.7 |
| 20260508225438 | 21 | 202 | 3.2 | 4.8 | 0.00 | 0.00 | 0.00 | 35 | 1046.7 |
| 20260508224935 | 21 | 207 | 1.6 | 3.2 | 0.00 | 0.00 | 0.00 | 35 | 1046.3 |
| 20260508224433 | 21 | 250 | 1.6 | 1.6 | 0.00 | 0.00 | 0.00 | 38 | 1046.6 |
| 20260508223930 | 21 | 244 | 1.6 | 1.6 | 0.00 | 0.00 | 0.00 | 37 | 1046.3 |
| 20260508223428 | 21 | 227 | 1.6 | 1.6 | 0.00 | 0.00 | 0.00 | 38 | 1046.6 |
| 20260508222925 | 21 | 209 | 1.6 | 3.2 | 0.00 | 0.00 | 0.00 | 37 | 1046.6 |
| 20260508222423 | 21 | 204 | 3.2 | 3.2 | 0.00 | 0.00 | 0.00 | 33 | 1046.6 |
| 20260508221919 | 22 | 207 | 4.8 | 4.8 | 0.00 | 0.00 | 0.00 | 33 | 1046.3 |
| 20260508221414 | 22 | 207 | 1.6 | 3.2 | 0.00 | 0.00 | 0.00 | 33 | 1046.4 |
| 20260508220911 | 22 | 286 | 0.0 | 3.2 | 0.00 | 0.00 | 0.00 | 37 | 1046.4 |
| 20260508220407 | 22 | 230 | 1.6 | 3.2 | 0.00 | 0.00 | 0.00 | 37 | 1046.3 |
| 20260508215904 | 22 | 220 | 1.6 | 4.8 | 0.00 | 0.00 | 0.00 | 37 | 1046.3 |
| 20260508215401 | 22 | 204 | 3.2 | 4.8 | 0.00 | 0.00 | 0.00 | 31 | 1046.4 |
| 20260508214857 | 22 | 217 | 3.2 | 3.2 | 0.00 | 0.00 | 0.00 | 36 | 1046.3 |
| 20260508214355 | 22 | 268 | 1.6 | 1.6 | 0.00 | 0.00 | 0.00 | 34 | 1046.4 |
| 20260508213851 | 22 | 209 | 3.2 | 3.2 | 0.00 | 0.00 | 0.00 | 30 | 1046.4 |
| 20260508213348 | 22 | 210 | 1.6 | 3.2 | 0.00 | 0.00 | 0.00 | 32 | 1046.3 |
| 20260508212844 | 22 | 246 | 1.6 | 3.2 | 0.00 | 0.00 | 0.00 | 36 | 1046.3 |
| 20260508212341 | 22 | 215 | 4.8 | 4.8 | 0.00 | 0.00 | 0.00 | 32 | 1046.2 |
| 20260508211836 | 22 | 215 | 4.8 | 4.8 | 0.00 | 0.00 | 0.00 | 32 | 1046.3 |
| 20260508211332 | 23 | 223 | 4.8 | 6.4 | 0.00 | 0.00 | 0.00 | 36 | 1046.7 |
| 20260508210830 | -17 | 0.0 | 0.0 | 0.00 | 0.00 | 0.00 | 1046.6 | ||
| 20260508210327 | 23 | 211 | 4.8 | 4.8 | 0.00 | 0.00 | 0.00 | 33 | 1046.7 |
| 20260508205824 | 23 | 211 | 4.8 | 4.8 | 0.00 | 0.00 | 0.00 | 33 | 1046.9 |
| 20260508205320 | 22 | 240 | 1.6 | 1.6 | 0.00 | 0.00 | 0.00 | 37 | 1046.8 |
| 20260508204816 | 22 | 235 | 3.2 | 3.2 | 0.00 | 0.00 | 0.00 | 34 | 1047.0 |
| 20260508204313 | 22 | 231 | 3.2 | 3.2 | 0.00 | 0.00 | 0.00 | 37 | 1047.1 |
| 20260508203809 | 23 | 228 | 1.6 | 1.6 | 0.00 | 0.00 | 0.00 | 36 | 1047.1 |
| 20260508203306 | 23 | 245 | 3.2 | 4.8 | 0.00 | 0.00 | 0.00 | 40 | 1047.1 |
| 20260508202801 | 23 | 203 | 6.4 | 6.4 | 0.00 | 0.00 | 0.00 | 35 | 1047.3 |
| 20260508202259 | 22 | 272 | 3.2 | 3.2 | 0.00 | 0.00 | 0.00 | 38 | 1047.4 |
| 20260508201756 | 22 | 200 | 1.6 | 1.6 | 0.00 | 0.00 | 0.00 | 40 | 1047.8 |
| 20260508201253 | 22 | 202 | 4.8 | 6.4 | 0.00 | 0.00 | 0.00 | 31 | 1048.1 |
| 20260508200749 | 22 | 270 | 1.6 | 1.6 | 0.00 | 0.00 | 0.00 | 37 | 1047.8 |
| 20260508200245 | 21 | 266 | 3.2 | 3.2 | 0.00 | 0.00 | 0.00 | 42 | 1048.0 |
| 20260508195742 | 21 | 206 | 3.2 | 4.8 | 0.00 | 0.00 | 0.00 | 33 | 1047.9 |
| 20260508195239 | 21 | 207 | 6.4 | 9.7 | 0.00 | 0.00 | 0.00 | 36 | 1047.9 |
| 20260508194735 | 21 | 200 | 4.8 | 4.8 | 0.00 | 0.00 | 0.00 | 33 | 1047.9 |
| 20260508194232 | 21 | 205 | 4.8 | 4.8 | 0.00 | 0.00 | 0.00 | 32 | 1047.8 |
| 20260508193729 | 21 | 221 | 4.8 | 4.8 | 0.00 | 0.00 | 0.00 | 36 | 1048.0 |
| 20260508193225 | 21 | 193 | 4.8 | 4.8 | 0.00 | 0.00 | 0.00 | 35 | 1047.7 |
| 20260508192722 | 22 | 194 | 6.4 | 6.4 | 0.00 | 0.00 | 0.00 | 32 | 1047.5 |
| 20260508192219 | 22 | 222 | 3.2 | 3.2 | 0.00 | 0.00 | 0.00 | 44 | 1047.9 |
| 20260508191717 | 21 | 203 | 3.2 | 4.8 | 0.00 | 0.00 | 0.00 | 37 | 1048.0 |
| 20260508191213 | 22 | 196 | 4.8 | 4.8 | 0.00 | 0.00 | 0.00 | 38 | 1048.1 |
| 20260508190710 | 21 | 212 | 3.2 | 4.8 | 0.00 | 0.00 | 0.00 | 36 | 1048.1 |
| 20260508190207 | 21 | 211 | 4.8 | 4.8 | 0.00 | 0.00 | 0.00 | 39 | 1048.2 |
| 20260508185704 | 21 | 214 | 4.8 | 4.8 | 0.00 | 0.00 | 0.00 | 37 | 1048.2 |
| 20260508185201 | 20 | 197 | 3.2 | 4.8 | 0.00 | 0.00 | 0.00 | 37 | 1048.4 |
| 20260508184658 | 21 | 202 | 9.7 | 11.3 | 0.00 | 0.00 | 0.00 | 40 | 1048.1 |
| 20260508184155 | 21 | 179 | 8.0 | 9.7 | 0.00 | 0.00 | 0.00 | 37 | 1048.3 |
| 20260508183652 | 21 | 241 | 3.2 | 3.2 | 0.00 | 0.00 | 0.00 | 42 | 1048.6 |
| 20260508183148 | 21 | 207 | 6.4 | 6.4 | 0.00 | 0.00 | 0.00 | 39 | 1048.7 |
| 20260508182644 | 21 | 236 | 1.6 | 4.8 | 0.00 | 0.00 | 0.00 | 36 | 1048.7 |
| 20260508182141 | 20 | 231 | 4.8 | 9.7 | 0.00 | 0.00 | 0.00 | 44 | 1048.8 |
| 20260508181636 | 21 | 210 | 3.2 | 3.2 | 0.00 | 0.00 | 0.00 | 43 | 1048.9 |
| 20260508181134 | 21 | 210 | 3.2 | 3.2 | 0.00 | 0.00 | 0.00 | 43 | 1049.1 |
| 20260508180630 | 21 | 280 | 1.6 | 1.6 | 0.00 | 0.00 | 0.00 | 40 | 1049.1 |
| 20260508180127 | 21 | 201 | 4.8 | 4.8 | 0.00 | 0.00 | 0.00 | 37 | 1049.4 |
| 20260508175624 | 21 | 199 | 11.3 | 14.5 | 0.00 | 0.00 | 0.00 | 40 | 1049.2 |
| 20260508175121 | 21 | 205 | 3.2 | 4.8 | 0.00 | 0.00 | 0.00 | 36 | 1049.5 |
| 20260508174618 | 21 | 210 | 4.8 | 6.4 | 0.00 | 0.00 | 0.00 | 36 | 1049.6 |
| 20260508174115 | 21 | 230 | 0.0 | 1.6 | 0.00 | 0.00 | 0.00 | 43 | 1049.8 |
| 20260508173612 | 20 | 210 | 6.4 | 9.7 | 0.00 | 0.00 | 0.00 | 43 | 1049.6 |
| 20260508173108 | 20 | 190 | 3.2 | 4.8 | 0.00 | 0.00 | 0.00 | 40 | 1049.6 |
| 20260508172605 | 20 | 234 | 3.2 | 3.2 | 0.00 | 0.00 | 0.00 | 39 | 1049.9 |
| 20260508172102 | 20 | 201 | 4.8 | 4.8 | 0.00 | 0.00 | 0.00 | 39 | 1050.2 |
| 20260508171558 | 20 | 201 | 3.2 | 3.2 | 0.00 | 0.00 | 0.00 | 44 | 1050.1 |
| 20260508171055 | 20 | 205 | 4.8 | 6.4 | 0.00 | 0.00 | 0.00 | 45 | 1050.1 |
| 20260508170552 | 21 | 191 | 4.8 | 4.8 | 0.00 | 0.00 | 0.00 | 40 | 1050.3 |
| 20260508170049 | 21 | 256 | 3.2 | 3.2 | 0.00 | 0.00 | 0.00 | 41 | 1050.3 |
| 20260508165546 | 20 | 255 | 0.0 | 3.2 | 0.00 | 0.00 | 0.00 | 45 | 1050.6 |
| 20260508165043 | 21 | 185 | 6.4 | 6.4 | 0.00 | 0.00 | 0.00 | 41 | 1050.8 |
| 20260508164540 | 21 | 252 | 4.8 | 6.4 | 0.00 | 0.00 | 0.00 | 42 | 1050.9 |
| 20260508164037 | 21 | 221 | 3.2 | 4.8 | 0.00 | 0.00 | 0.00 | 44 | 1051.0 |
| 20260508163534 | 20 | 275 | 0.0 | 1.6 | 0.00 | 0.00 | 0.00 | 46 | 1051.0 |
| 20260508163030 | 20 | 273 | 3.2 | 4.8 | 0.00 | 0.00 | 0.00 | 46 | 1051.2 |
| 20260508162527 | 20 | 203 | 4.8 | 4.8 | 0.00 | 0.00 | 0.00 | 40 | 1051.2 |
| 20260508162025 | 20 | 257 | 1.6 | 4.8 | 0.00 | 0.00 | 0.00 | 50 | 1051.4 |
| 20260508161521 | 19 | 282 | 1.6 | 3.2 | 0.00 | 0.00 | 0.00 | 51 | 1051.4 |
| 20260508161018 | 20 | 193 | 3.2 | 3.2 | 0.00 | 0.00 | 0.00 | 42 | 1051.6 |
| 20260508160517 | 20 | 216 | 4.8 | 4.8 | 0.00 | 0.00 | 0.00 | 44 | 1051.5 |
| 20260508160014 | 20 | 240 | 1.6 | 3.2 | 0.00 | 0.00 | 0.00 | 38 | 1051.6 |
| 20260508155511 | 20 | 243 | 0.0 | 1.6 | 0.00 | 0.00 | 0.00 | 48 | 1051.4 |
| 20260508155008 | 18 | 211 | 3.2 | 3.2 | 0.00 | 0.00 | 0.00 | 46 | 1051.6 |
| 20260508154505 | 18 | 199 | 3.2 | 4.8 | 0.00 | 0.00 | 0.00 | 43 | 1051.6 |
| 20260508154001 | 18 | 220 | 3.2 | 3.2 | 0.00 | 0.00 | 0.00 | 44 | 1051.6 |
| 20260508153458 | 18 | 217 | 3.2 | 4.8 | 0.00 | 0.00 | 0.00 | 42 | 1051.7 |
| 20260508152955 | 18 | 241 | 3.2 | 4.8 | 0.00 | 0.00 | 0.00 | 46 | 1051.9 |
| 20260508152452 | 18 | 210 | 3.2 | 4.8 | 0.00 | 0.00 | 0.00 | 42 | 1051.8 |
| 20260508151948 | 18 | 218 | 3.2 | 3.2 | 0.00 | 0.00 | 0.00 | 46 | 1052.0 |
| 20260508151444 | 18 | 250 | 3.2 | 3.2 | 0.00 | 0.00 | 0.00 | 50 | 1052.1 |
| 20260508150941 | 18 | 241 | 0.0 | 3.2 | 0.00 | 0.00 | 0.00 | 44 | 1052.2 |
| 20260508150438 | 18 | 220 | 3.2 | 4.8 | 0.00 | 0.00 | 0.00 | 47 | 1052.1 |
| 20260508145933 | 18 | 190 | 4.8 | 4.8 | 0.00 | 0.00 | 0.00 | 43 | 1052.2 |
| 20260508145430 | 18 | 269 | 3.2 | 6.4 | 0.00 | 0.00 | 0.00 | 51 | 1052.4 |
| 20260508144927 | 18 | 227 | 0.0 | 1.6 | 0.00 | 0.00 | 0.00 | 43 | 1052.1 |
| 20260508144425 | 18 | 240 | 1.6 | 1.6 | 0.00 | 0.00 | 0.00 | 47 | 1052.2 |
| 20260508143922 | 17 | 237 | 1.6 | 1.6 | 0.00 | 0.00 | 0.00 | 53 | 1052.2 |
| 20260508143420 | 17 | 244 | 1.6 | 3.2 | 0.00 | 0.00 | 0.00 | 57 | 1052.3 |
| 20260508142916 | 17 | 242 | 3.2 | 4.8 | 0.00 | 0.00 | 0.00 | 50 | 1052.1 |
| 20260508142413 | 16 | 221 | 3.2 | 3.2 | 0.00 | 0.00 | 0.00 | 48 | 1052.1 |
| 20260508141909 | 16 | 264 | 3.2 | 3.2 | 0.00 | 0.00 | 0.00 | 54 | 1052.0 |
| 20260508141406 | 16 | 261 | 1.6 | 1.6 | 0.00 | 0.00 | 0.00 | 59 | 1052.1 |
| 20260508140904 | 15 | 314 | 1.6 | 3.2 | 0.00 | 0.00 | 0.00 | 56 | 1052.2 |
| 20260508140401 | 15 | 222 | 0.0 | 1.6 | 0.00 | 0.00 | 0.00 | 53 | 1052.2 |
| 20260508135856 | 15 | 227 | 3.2 | 1.6 | 0.00 | 0.00 | 0.00 | 53 | 1052.1 |
| 20260508135353 | 14 | 202 | 0.0 | 0.0 | 0.00 | 0.00 | 0.00 | 60 | 1052.4 |
| 20260508134849 | 13 | 204 | 1.6 | 3.2 | 0.00 | 0.00 | 0.00 | 54 | 1052.4 |
| 20260508134346 | 13 | 204 | 1.6 | 1.6 | 0.00 | 0.00 | 0.00 | 56 | 1052.4 |
| 20260508133842 | 13 | 201 | 1.6 | 3.2 | 0.00 | 0.00 | 0.00 | 56 | 1052.4 |
| 20260508133341 | 13 | 82 | 1.6 | 1.6 | 0.00 | 0.00 | 0.00 | 58 | 1052.3 |
| 20260508132837 | 12 | 220 | 0.0 | 1.6 | 0.00 | 0.00 | 0.00 | 56 | 1052.1 |
| 20260508132335 | 12 | 222 | 3.2 | 3.2 | 0.00 | 0.00 | 0.00 | 55 | 1052.5 |
| 20260508131831 | 12 | 237 | 0.0 | 3.2 | 0.00 | 0.00 | 0.00 | 58 | 1052.2 |
| 20260508131327 | 12 | 237 | 1.6 | 1.6 | 0.00 | 0.00 | 0.00 | 62 | 1052.1 |
| 20260508130824 | 12 | 237 | 1.6 | 1.6 | 0.00 | 0.00 | 0.00 | 61 | 1052.3 |
| 20260508130321 | 11 | 237 | 0.0 | 1.6 | 0.00 | 0.00 | 0.00 | 60 | 1052.1 |
| 20260508125817 | 11 | 237 | 0.0 | 0.0 | 0.00 | 0.00 | 0.00 | 59 | 1052.0 |
| 20260508125313 | 11 | 237 | 0.0 | 1.6 | 0.00 | 0.00 | 0.00 | 62 | 1052.2 |
| 20260508124811 | 11 | 237 | 0.0 | 0.0 | 0.00 | 0.00 | 0.00 | 62 | 1052.1 |
| 20260508124308 | 11 | 237 | 0.0 | 0.0 | 0.00 | 0.00 | 0.00 | 61 | 1052.2 |
| 20260508123806 | 10 | 237 | 0.0 | 0.0 | 0.00 | 0.00 | 0.00 | 65 | 1052.2 |
| 20260508123304 | 10 | 237 | 0.0 | 0.0 | 0.00 | 0.00 | 0.00 | 64 | 1052.2 |
| 20260508122800 | 10 | 237 | 0.0 | 0.0 | 0.00 | 0.00 | 0.00 | 65 | 1052.2 |
| 20260508122257 | 9 | 237 | 0.0 | 0.0 | 0.00 | 0.00 | 0.00 | 66 | 1052.1 |
| 20260508121755 | 9 | 237 | 0.0 | 0.0 | 0.00 | 0.00 | 0.00 | 68 | 1052.3 |
| 20260508121253 | 9 | 237 | 0.0 | 0.0 | 0.00 | 0.00 | 0.00 | 70 | 1051.9 |
| 20260508120750 | 8 | 237 | 0.0 | 0.0 | 0.00 | 0.00 | 0.00 | 72 | 1052.1 |
| 20260508120248 | 8 | 237 | 0.0 | 0.0 | 0.00 | 0.00 | 0.00 | 71 | 1052.1 |
| 20260508115745 | 8 | 237 | 0.0 | 0.0 | 0.00 | 0.00 | 0.00 | 73 | 1052.1 |
| 20260508115243 | 7 | 237 | 0.0 | 0.0 | 0.00 | 0.00 | 0.00 | 72 | 1052.0 |
| 20260508114739 | 7 | 237 | 0.0 | 0.0 | 0.00 | 0.00 | 0.00 | 74 | 1051.8 |
| 20260508114236 | 7 | 237 | 0.0 | 0.0 | 0.00 | 0.00 | 0.00 | 76 | 1051.8 |
| 20260508113732 | 7 | 237 | 0.0 | 0.0 | 0.00 | 0.00 | 0.00 | 75 | 1051.8 |
| 20260508113231 | 6 | 237 | 0.0 | 0.0 | 0.00 | 0.00 | 0.00 | 75 | 1051.5 |
| 20260508112727 | 6 | 237 | 0.0 | 0.0 | 0.00 | 0.00 | 0.00 | 75 | 1051.7 |
| 20260508112224 | 6 | 237 | 0.0 | 0.0 | 0.00 | 0.00 | 0.00 | 77 | 1051.6 |
| 20260508111720 | 5 | 237 | 0.0 | 0.0 | 0.00 | 0.00 | 0.00 | 83 | 1051.6 |
| 20260508111218 | 5 | 237 | 0.0 | 0.0 | 0.00 | 0.00 | 0.00 | 87 | 1051.5 |
| 20260508110715 | 4 | 237 | 0.0 | 0.0 | 0.00 | 0.00 | 0.00 | 88 | 1051.6 |
| 20260508110212 | 4 | 237 | 0.0 | 0.0 | 0.00 | 0.00 | 0.00 | 86 | 1051.6 |
| 20260508105712 | 4 | 237 | 0.0 | 0.0 | 0.00 | 0.00 | 0.00 | 85 | 1051.6 |
| 20260508105209 | 4 | 237 | 0.0 | 0.0 | 0.00 | 0.00 | 0.00 | 84 | 1051.7 |
| 20260508104706 | 4 | 237 | 0.0 | 0.0 | 0.00 | 0.00 | 0.00 | 85 | 1051.4 |
| 20260508104203 | 4 | 237 | 0.0 | 0.0 | 0.00 | 0.00 | 0.00 | 86 | 1051.7 |
| 20260508103700 | 4 | 237 | 0.0 | 0.0 | 0.00 | 0.00 | 0.00 | 85 | 1051.5 |
| 20260508103157 | 4 | 237 | 0.0 | 0.0 | 0.00 | 0.00 | 0.00 | 84 | 1051.5 |
| 20260508102654 | 5 | 237 | 0.0 | 0.0 | 0.00 | 0.00 | 0.00 | 84 | 1051.3 |
| 20260508102153 | 5 | 237 | 0.0 | 0.0 | 0.00 | 0.00 | 0.00 | 84 | 1051.3 |
| 20260508101649 | 4 | 237 | 0.0 | 0.0 | 0.00 | 0.00 | 0.00 | 83 | 1051.3 |
| 20260508101147 | 4 | 237 | 0.0 | 0.0 | 0.00 | 0.00 | 0.00 | 82 | 1051.1 |
| 20260508100644 | 5 | 237 | 0.0 | 0.0 | 0.00 | 0.00 | 0.00 | 81 | 1051.2 |
| 20260508100142 | 5 | 237 | 0.0 | 0.0 | 0.00 | 0.00 | 0.00 | 81 | 1051.2 |
| 20260508095639 | 5 | 237 | 0.0 | 0.0 | 0.00 | 0.00 | 0.00 | 83 | 1051.2 |
| 20260508095136 | 4 | 237 | 0.0 | 0.0 | 0.00 | 0.00 | 0.00 | 83 | 1051.4 |
| 20260508094632 | 4 | 237 | 0.0 | 0.0 | 0.00 | 0.00 | 0.00 | 83 | 1051.3 |
| 20260508094129 | 4 | 237 | 0.0 | 0.0 | 0.00 | 0.00 | 0.00 | 84 | 1051.2 |
| 20260508093627 | 5 | 237 | 0.0 | 0.0 | 0.00 | 0.00 | 0.00 | 84 | 1051.3 |
| 20260508093124 | 5 | 237 | 0.0 | 0.0 | 0.00 | 0.00 | 0.00 | 82 | 1051.3 |
| 20260508092621 | 5 | 237 | 0.0 | 0.0 | 0.00 | 0.00 | 0.00 | 80 | 1051.4 |
| 20260508092120 | 5 | 237 | 0.0 | 0.0 | 0.00 | 0.00 | 0.00 | 79 | 1051.2 |
| 20260508091616 | 5 | 237 | 0.0 | 0.0 | 0.00 | 0.00 | 0.00 | 78 | 1051.1 |
| 20260508091113 | 5 | 237 | 0.0 | 0.0 | 0.00 | 0.00 | 0.00 | 77 | 1051.1 |
| 20260508090612 | 5 | 237 | 0.0 | 0.0 | 0.00 | 0.00 | 0.00 | 78 | 1051.4 |
| 20260508090108 | 5 | 237 | 0.0 | 0.0 | 0.00 | 0.00 | 0.00 | 78 | 1051.2 |
| 20260508085604 | 5 | 237 | 0.0 | 0.0 | 0.00 | 0.00 | 0.00 | 77 | 1051.2 |
| 20260508085102 | 5 | 238 | 0.0 | 0.0 | 0.00 | 0.00 | 0.00 | 77 | 1051.2 |
| 20260508084558 | 5 | 258 | 0.0 | 0.0 | 0.00 | 0.00 | 0.00 | 76 | 1051.3 |
| 20260508084056 | 6 | 258 | 0.0 | 0.0 | 0.00 | 0.00 | 0.00 | 76 | 1051.2 |
| 20260508083553 | 5 | 258 | 0.0 | 0.0 | 0.00 | 0.00 | 0.00 | 77 | 1051.3 |
| 20260508083050 | 5 | 259 | 0.0 | 0.0 | 0.00 | 0.00 | 0.00 | 81 | 1051.2 |
| 20260508082545 | 5 | 259 | 0.0 | 0.0 | 0.00 | 0.00 | 0.00 | 81 | 1051.1 |
| 20260508082043 | 5 | 259 | 0.0 | 0.0 | 0.00 | 0.00 | 0.00 | 80 | 1051.1 |
| 20260508081540 | 5 | 259 | 0.0 | 0.0 | 0.00 | 0.00 | 0.00 | 80 | 1051.3 |
| 20260508081036 | 5 | 259 | 0.0 | 0.0 | 0.00 | 0.00 | 0.00 | 81 | 1051.3 |
| 20260508080534 | 4 | 259 | 0.0 | 0.0 | 0.00 | 0.00 | 0.00 | 88 | 1051.2 |
| 20260508080031 | 3 | 259 | 0.0 | 0.0 | 0.00 | 0.00 | 0.00 | 89 | 1051.4 |
| 20260508075528 | 3 | 259 | 0.0 | 0.0 | 0.00 | 0.00 | 0.00 | 88 | 1051.3 |
| 20260508075025 | 4 | 259 | 0.0 | 0.0 | 0.00 | 0.00 | 0.00 | 86 | 1051.3 |
| 20260508074523 | 5 | 259 | 0.0 | 0.0 | 0.00 | 0.00 | 0.00 | 84 | 1051.1 |
| 20260508074020 | 4 | 259 | 0.0 | 0.0 | 0.00 | 0.00 | 0.00 | 85 | 1051.2 |
| 20260508073517 | 4 | 259 | 0.0 | 0.0 | 0.00 | 0.00 | 0.00 | 84 | 1051.3 |
| 20260508073015 | 5 | 259 | 0.0 | 0.0 | 0.00 | 0.00 | 0.00 | 83 | 1051.0 |
| 20260508072510 | 5 | 259 | 0.0 | 0.0 | 0.00 | 0.00 | 0.00 | 85 | 1051.2 |
| 20260508072008 | 4 | 259 | 0.0 | 0.0 | 0.00 | 0.00 | 0.00 | 86 | 1051.2 |
| 20260508071505 | 4 | 259 | 0.0 | 0.0 | 0.00 | 0.00 | 0.00 | 85 | 1051.3 |
| 20260508071003 | 5 | 259 | 0.0 | 0.0 | 0.00 | 0.00 | 0.00 | 86 | 1051.1 |
| 20260508070500 | 5 | 259 | 0.0 | 0.0 | 0.00 | 0.00 | 0.00 | 85 | 1051.1 |
| 20260508065958 | 5 | 259 | 0.0 | 0.0 | 0.00 | 0.00 | 0.00 | 87 | 1051.4 |
| 20260508065456 | 5 | 259 | 0.0 | 0.0 | 0.00 | 0.00 | 0.00 | 87 | 1051.4 |
| 20260508064954 | 4 | 259 | 0.0 | 0.0 | 0.00 | 0.00 | 0.00 | 87 | 1051.3 |
| 20260508064451 | 4 | 259 | 0.0 | 0.0 | 0.00 | 0.00 | 0.00 | 85 | 1051.5 |
| 20260508063949 | 4 | 259 | 0.0 | 0.0 | 0.00 | 0.00 | 0.00 | 84 | 1051.6 |
| 20260508063446 | 4 | 259 | 0.0 | 0.0 | 0.00 | 0.00 | 0.00 | 85 | 1051.5 |
| 20260508062943 | 4 | 259 | 0.0 | 0.0 | 0.00 | 0.00 | 0.00 | 86 | 1051.6 |
| 20260508062441 | 4 | 259 | 0.0 | 0.0 | 0.00 | 0.00 | 0.00 | 87 | 1051.6 |
| 20260508061938 | 4 | 259 | 0.0 | 0.0 | 0.00 | 0.00 | 0.00 | 89 | 1051.6 |
| 20260508061436 | 4 | 259 | 0.0 | 0.0 | 0.00 | 0.00 | 0.00 | 88 | 1051.5 |
| 20260508060931 | 4 | 259 | 0.0 | 0.0 | 0.00 | 0.00 | 0.00 | 86 | 1051.6 |
| 20260508060429 | 5 | 259 | 0.0 | 0.0 | 0.00 | 0.00 | 0.00 | 85 | 1051.7 |
| 20260508055925 | 5 | 258 | 0.0 | 0.0 | 0.00 | 0.00 | 0.00 | 84 | 1051.9 |
| 20260508055422 | 5 | 258 | 0.0 | 0.0 | 0.00 | 0.00 | 0.00 | 84 | 1051.7 |
| 20260508054918 | 5 | 258 | 0.0 | 0.0 | 0.00 | 0.00 | 0.00 | 84 | 1051.8 |
| 20260508054416 | 5 | 258 | 0.0 | 0.0 | 0.00 | 0.00 | 0.00 | 83 | 1051.8 |
| 20260508053912 | 5 | 258 | 0.0 | 0.0 | 0.00 | 0.00 | 0.00 | 85 | 1051.6 |
| 20260508053409 | 5 | 258 | 0.0 | 0.0 | 0.00 | 0.00 | 0.00 | 85 | 1051.8 |
| 20260508052907 | 5 | 258 | 0.0 | 0.0 | 0.00 | 0.00 | 0.00 | 84 | 1052.0 |
| 20260508052405 | 5 | 258 | 0.0 | 0.0 | 0.00 | 0.00 | 0.00 | 81 | 1051.9 |
| 20260508051900 | 5 | 258 | 0.0 | 0.0 | 0.00 | 0.00 | 0.00 | 80 | 1051.8 |
| 20260508051356 | 5 | 258 | 0.0 | 0.0 | 0.00 | 0.00 | 0.00 | 80 | 1051.8 |
| 20260508050852 | 5 | 258 | 0.0 | 0.0 | 0.00 | 0.00 | 0.00 | 80 | 1051.6 |
| 20260508050350 | 5 | 258 | 0.0 | 0.0 | 0.00 | 0.00 | 0.00 | 78 | 1051.7 |
| 20260508045845 | 5 | 258 | 0.0 | 0.0 | 0.00 | 0.00 | 0.00 | 81 | 1051.9 |
| 20260508045344 | 5 | 258 | 0.0 | 0.0 | 0.00 | 0.00 | 0.00 | 82 | 1051.7 |
| 20260508044841 | 6 | 258 | 0.0 | 0.0 | 0.00 | 0.00 | 0.00 | 81 | 1051.7 |
| 20260508044337 | 6 | 258 | 0.0 | 0.0 | 0.00 | 0.00 | 0.00 | 80 | 1051.7 |
| 20260508043833 | 6 | 258 | 0.0 | 0.0 | 0.00 | 0.00 | 0.00 | 79 | 1051.5 |
| 20260508043331 | 6 | 258 | 0.0 | 0.0 | 0.00 | 0.00 | 0.00 | 77 | 1051.6 |
| 20260508042827 | 6 | 258 | 0.0 | 0.0 | 0.00 | 0.00 | 0.00 | 80 | 1051.6 |
| 20260508042325 | 6 | 258 | 0.0 | 0.0 | 0.00 | 0.00 | 0.00 | 82 | 1051.6 |
| 20260508041821 | 6 | 258 | 0.0 | 0.0 | 0.00 | 0.00 | 0.00 | 83 | 1051.7 |
| 20260508041318 | 6 | 258 | 0.0 | 0.0 | 0.00 | 0.00 | 0.00 | 82 | 1051.8 |
| 20260508040814 | 6 | 258 | 0.0 | 0.0 | 0.00 | 0.00 | 0.00 | 81 | 1051.7 |
| 20260508040312 | 6 | 258 | 0.0 | 0.0 | 0.00 | 0.00 | 0.00 | 81 | 1051.6 |
| 20260508035809 | 6 | 258 | 0.0 | 0.0 | 0.00 | 0.00 | 0.00 | 80 | 1051.6 |
| 20260508035307 | 6 | 258 | 0.0 | 0.0 | 0.00 | 0.00 | 0.00 | 78 | 1051.6 |
| 20260508034803 | 6 | 258 | 0.0 | 0.0 | 0.00 | 0.00 | 0.00 | 73 | 1051.7 |
| 20260508034300 | 7 | 258 | 0.0 | 0.0 | 0.00 | 0.00 | 0.00 | 73 | 1051.7 |
| 20260508033757 | 7 | 258 | 0.0 | 0.0 | 0.00 | 0.00 | 0.00 | 72 | 1051.9 |
| 20260508033255 | 7 | 258 | 0.0 | 0.0 | 0.00 | 0.00 | 0.00 | 71 | 1052.0 |
| 20260508032753 | 7 | 258 | 0.0 | 0.0 | 0.00 | 0.00 | 0.00 | 73 | 1051.8 |
| 20260508032249 | 7 | 258 | 0.0 | 0.0 | 0.00 | 0.00 | 0.00 | 72 | 1051.8 |
| 20260508031746 | 6 | 258 | 0.0 | 0.0 | 0.00 | 0.00 | 0.00 | 76 | 1051.7 |
| 20260508031243 | 6 | 258 | 0.0 | 0.0 | 0.00 | 0.00 | 0.00 | 76 | 1051.9 |
| 20260508030739 | 7 | 258 | 0.0 | 0.0 | 0.00 | 0.00 | 0.00 | 72 | 1052.0 |
| 20260508030237 | 7 | 258 | 0.0 | 0.0 | 0.00 | 0.00 | 0.00 | 74 | 1051.9 |
| 20260508025733 | 7 | 258 | 0.0 | 0.0 | 0.00 | 0.00 | 0.00 | 75 | 1051.9 |
| 20260508025230 | 7 | 258 | 0.0 | 0.0 | 0.00 | 0.00 | 0.00 | 73 | 1051.8 |
| 20260508024726 | 7 | 258 | 0.0 | 0.0 | 0.00 | 0.00 | 0.00 | 71 | 1051.7 |
| 20260508024223 | 8 | 258 | 0.0 | 0.0 | 0.00 | 0.00 | 0.00 | 70 | 1051.7 |
| 20260508023720 | 8 | 258 | 0.0 | 0.0 | 0.00 | 0.00 | 0.00 | 66 | 1051.7 |
| 20260508023218 | 9 | 258 | 0.0 | 0.0 | 0.00 | 0.00 | 0.00 | 63 | 1051.9 |
| 20260508022713 | 9 | 258 | 0.0 | 0.0 | 0.00 | 0.00 | 0.00 | 58 | 1051.5 |
| 20260508022210 | 8 | 259 | 0.0 | 0.0 | 0.00 | 0.00 | 0.00 | 61 | 1051.5 |
| 20260508021707 | 9 | 259 | 0.0 | 0.0 | 0.00 | 0.00 | 0.00 | 64 | 1051.5 |
| 20260508021202 | 10 | 259 | 0.0 | 0.0 | 0.00 | 0.00 | 0.00 | 61 | 1051.3 |
| 20260508020700 | 10 | 259 | 0.0 | 0.0 | 0.00 | 0.00 | 0.00 | 59 | 1051.4 |
| 20260508020157 | 10 | 259 | 0.0 | 0.0 | 0.00 | 0.00 | 0.00 | 58 | 1051.4 |
| 20260508015654 | 10 | 259 | 0.0 | 0.0 | 0.00 | 0.00 | 0.00 | 55 | 1051.3 |
| 20260508015151 | 10 | 259 | 0.0 | 0.0 | 0.00 | 0.00 | 0.00 | 54 | 1051.3 |
| 20260508014647 | 10 | 259 | 0.0 | 0.0 | 0.00 | 0.00 | 0.00 | 54 | 1051.2 |
| 20260508014143 | 10 | 259 | 0.0 | 0.0 | 0.00 | 0.00 | 0.00 | 54 | 1051.2 |
| 20260508013640 | 10 | 259 | 0.0 | 0.0 | 0.00 | 0.00 | 0.00 | 53 | 1051.0 |
| 20260508013137 | 10 | 259 | 0.0 | 0.0 | 0.00 | 0.00 | 0.00 | 54 | 1050.8 |
| 20260508012635 | 10 | 259 | 0.0 | 0.0 | 0.00 | 0.00 | 0.00 | 51 | 1051.0 |
| 20260508012131 | 10 | 259 | 0.0 | 0.0 | 0.00 | 0.00 | 0.00 | 53 | 1051.1 |
| 20260508011630 | 11 | 259 | 0.0 | 0.0 | 0.00 | 0.00 | 0.00 | 53 | 1050.8 |
| 20260508011127 | 11 | 259 | 0.0 | 0.0 | 0.00 | 0.00 | 0.00 | 52 | 1050.8 |
| 20260508010623 | 11 | 259 | 0.0 | 0.0 | 0.00 | 0.00 | 0.00 | 54 | 1051.0 |
| 20260508010122 | 12 | 259 | 0.0 | 0.0 | 0.00 | 0.00 | 0.00 | 52 | 1050.6 |
| 20260508005618 | 12 | 260 | 0.0 | 0.0 | 0.00 | 0.00 | 0.00 | 50 | 1050.6 |
| 20260508005114 | 12 | 260 | 0.0 | 0.0 | 0.00 | 0.00 | 0.00 | 50 | 1050.6 |
| 20260508004610 | 12 | 260 | 1.6 | 1.6 | 0.00 | 0.00 | 0.00 | 47 | 1050.6 |
| 20260508004107 | 12 | 260 | 0.0 | 0.0 | 0.00 | 0.00 | 0.00 | 50 | 1050.3 |
| 20260508003603 | 12 | 260 | 0.0 | 0.0 | 0.00 | 0.00 | 0.00 | 49 | 1050.5 |
| 20260508003101 | 12 | 260 | 0.0 | 0.0 | 0.00 | 0.00 | 0.00 | 52 | 1050.3 |
| 20260508002557 | 12 | 259 | 0.0 | 0.0 | 0.00 | 0.00 | 0.00 | 50 | 1050.2 |
| 20260508002055 | 13 | 259 | 0.0 | 0.0 | 0.00 | 0.00 | 0.00 | 50 | 1050.3 |
| 20260508001550 | 13 | 277 | 0.0 | 1.6 | 0.00 | 0.00 | 0.00 | 49 | 1050.2 |
| 20260508001047 | 13 | 277 | 1.6 | 1.6 | 0.00 | 0.00 | 0.00 | 46 | 1050.0 |